Time,TemperatureF,DewpointF,PressureIn,WindDirection,WindDirectionDegrees,WindSpeedMPH,WindSpeedGustMPH,Humidity,HourlyPrecipIn,Conditions,Clouds,dailyrainin,SoftwareType,DateUTC
2013-01-29 00:01:00,24.0,20.0,-100.00,SW,230,17.0,20.0,85,0.00,,,-99.99,,2013-01-29 08:01:00,
2013-01-29 00:21:00,24.0,20.0,-100.00,SW,230,17.0,20.0,85,0.00,,,-99.99,,2013-01-29 08:21:00,
2013-01-29 00:32:00,24.0,20.0,-100.00,SW,230,17.0,20.0,85,0.00,,,-99.99,,2013-01-29 08:32:00,
2013-01-29 00:42:00,24.0,20.0,-100.00,SW,230,17.0,20.0,85,0.00,,,-99.99,,2013-01-29 08:42:00,
2013-01-29 00:52:00,24.0,20.0,-100.00,SW,230,17.0,20.0,85,0.00,,,-99.99,,2013-01-29 08:52:00,
2013-01-29 01:01:00,24.0,19.0,-100.00,SW,220,26.0,32.0,80,0.00,,,-99.99,,2013-01-29 09:01:00,
2013-01-29 01:22:00,24.0,19.0,-100.00,SW,220,26.0,32.0,80,0.00,,,-99.99,,2013-01-29 09:22:00,
2013-01-29 01:32:00,24.0,19.0,-100.00,SW,220,26.0,32.0,80,0.00,,,-99.99,,2013-01-29 09:32:00,
2013-01-29 01:42:00,24.0,19.0,-100.00,SW,220,26.0,32.0,80,0.00,,,-99.99,,2013-01-29 09:42:00,
2013-01-29 01:52:00,24.0,19.0,-100.00,SW,220,26.0,32.0,80,0.00,,,-99.99,,2013-01-29 09:52:00,
2013-01-29 02:01:00,24.0,17.0,-100.00,SW,220,31.0,36.0,74,0.00,,,-99.99,,2013-01-29 10:01:00,
2013-01-29 02:42:00,24.0,17.0,-100.00,SW,220,31.0,36.0,74,0.00,,,-99.99,,2013-01-29 10:42:00,
2013-01-29 02:52:00,24.0,17.0,-100.00,SW,220,31.0,36.0,74,0.00,,,-99.99,,2013-01-29 10:52:00,
2013-01-29 03:01:00,24.0,19.0,-100.00,WSW,240,30.0,36.0,82,0.00,,,-99.99,,2013-01-29 11:01:00,
2013-01-29 03:22:00,24.0,19.0,-100.00,WSW,240,30.0,36.0,82,0.00,,,-99.99,,2013-01-29 11:22:00,
2013-01-29 03:32:00,24.0,19.0,-100.00,WSW,240,30.0,36.0,82,0.00,,,-99.99,,2013-01-29 11:32:00,
2013-01-29 03:42:00,24.0,19.0,-100.00,WSW,240,30.0,36.0,82,0.00,,,-99.99,,2013-01-29 11:42:00,
2013-01-29 03:52:00,24.0,19.0,-100.00,WSW,240,30.0,36.0,82,0.00,,,-99.99,,2013-01-29 11:52:00,
2013-01-29 04:01:00,25.0,19.0,-100.00,WSW,250,31.0,34.0,79,0.00,,,-99.99,,2013-01-29 12:01:00,
2013-01-29 04:22:00,25.0,19.0,-100.00,WSW,250,31.0,34.0,79,0.00,,,-99.99,,2013-01-29 12:22:00,
2013-01-29 04:33:00,25.0,19.0,-100.00,WSW,250,31.0,34.0,79,0.00,,,-99.99,,2013-01-29 12:33:00,
2013-01-29 04:43:00,25.0,19.0,-100.00,WSW,250,31.0,34.0,79,0.00,,,-99.99,,2013-01-29 12:43:00,
2013-01-29 04:52:00,25.0,19.0,-100.00,WSW,250,31.0,34.0,79,0.00,,,-99.99,,2013-01-29 12:52:00,
2013-01-29 05:01:00,25.0,19.0,-100.00,WSW,250,43.0,45.0,77,0.00,,,-99.99,,2013-01-29 13:01:00,
2013-01-29 05:23:00,25.0,19.0,-100.00,WSW,250,43.0,45.0,77,0.00,,,-99.99,,2013-01-29 13:23:00,
2013-01-29 05:32:00,25.0,19.0,-100.00,WSW,250,43.0,45.0,77,0.00,,,-99.99,,2013-01-29 13:32:00,
2013-01-29 05:43:00,25.0,19.0,-100.00,WSW,250,43.0,45.0,77,0.00,,,-99.99,,2013-01-29 13:43:00,
2013-01-29 05:52:00,25.0,19.0,-100.00,WSW,250,43.0,45.0,77,0.00,,,-99.99,,2013-01-29 13:52:00,
2013-01-29 06:01:00,25.0,19.0,-100.00,WSW,240,34.0,45.0,76,0.00,,,-99.99,,2013-01-29 14:01:00,
2013-01-29 06:22:00,25.0,19.0,-100.00,WSW,240,34.0,45.0,76,0.00,,,-99.99,,2013-01-29 14:22:00,
2013-01-29 06:33:00,25.0,19.0,-100.00,WSW,240,34.0,45.0,76,0.00,,,-99.99,,2013-01-29 14:33:00,
2013-01-29 06:43:00,25.0,19.0,-100.00,WSW,240,34.0,45.0,76,0.00,,,-99.99,,2013-01-29 14:43:00,
2013-01-29 06:52:00,25.0,19.0,-100.00,WSW,240,34.0,45.0,76,0.00,,,-99.99,,2013-01-29 14:52:00,
2013-01-29 07:01:00,26.0,18.0,-100.00,WSW,250,36.0,43.0,71,0.00,,,-99.99,,2013-01-29 15:01:00,
2013-01-29 07:22:00,26.0,18.0,-100.00,WSW,250,36.0,43.0,71,0.00,,,-99.99,,2013-01-29 15:22:00,
2013-01-29 07:33:00,26.0,18.0,-100.00,WSW,250,36.0,43.0,71,0.00,,,-99.99,,2013-01-29 15:33:00,
2013-01-29 07:43:00,26.0,18.0,-100.00,WSW,250,36.0,43.0,71,0.00,,,-99.99,,2013-01-29 15:43:00,
2013-01-29 07:53:00,26.0,18.0,-100.00,WSW,250,36.0,43.0,71,0.00,,,-99.99,,2013-01-29 15:53:00,
2013-01-29 08:01:00,29.0,19.0,-100.00,WSW,250,27.0,48.0,66,0.00,,,-99.99,,2013-01-29 16:01:00,
2013-01-29 08:23:00,29.0,19.0,-100.00,WSW,250,27.0,48.0,66,0.00,,,-99.99,,2013-01-29 16:23:00,
2013-01-29 08:33:00,29.0,19.0,-100.00,WSW,250,27.0,48.0,66,0.00,,,-99.99,,2013-01-29 16:33:00,
2013-01-29 08:43:00,29.0,19.0,-100.00,WSW,250,27.0,48.0,66,0.00,,,-99.99,,2013-01-29 16:43:00,
2013-01-29 08:53:00,29.0,19.0,-100.00,WSW,250,27.0,48.0,66,0.00,,,-99.99,,2013-01-29 16:53:00,
2013-01-29 09:01:00,29.0,18.0,-100.00,WSW,240,18.0,48.0,62,0.00,,,-99.99,,2013-01-29 17:01:00,
2013-01-29 09:42:00,29.0,18.0,-100.00,WSW,240,18.0,48.0,62,0.00,,,-99.99,,2013-01-29 17:42:00,
2013-01-29 09:52:00,29.0,18.0,-100.00,WSW,240,18.0,48.0,62,0.00,,,-99.99,,2013-01-29 17:52:00,
2013-01-29 10:01:00,34.0,20.0,-100.00,West,280,10.0,33.0,57,0.00,,,-99.99,,2013-01-29 18:01:00,
2013-01-29 10:22:00,34.0,20.0,-100.00,West,280,10.0,33.0,57,0.00,,,-99.99,,2013-01-29 18:22:00,
2013-01-29 10:33:00,34.0,20.0,-100.00,West,280,10.0,33.0,57,0.00,,,-99.99,,2013-01-29 18:33:00,
2013-01-29 10:42:00,34.0,20.0,-100.00,West,280,10.0,33.0,57,0.00,,,-99.99,,2013-01-29 18:42:00,
2013-01-29 10:52:00,34.0,20.0,-100.00,West,280,10.0,33.0,57,0.00,,,-99.99,,2013-01-29 18:52:00,
2013-01-29 11:01:00,41.0,23.0,-100.00,NW,310,30.0,34.0,48,0.00,,,-99.99,,2013-01-29 19:01:00,
2013-01-29 11:23:00,41.0,23.0,-100.00,NW,310,30.0,34.0,48,0.00,,,-99.99,,2013-01-29 19:23:00,
2013-01-29 11:33:00,41.0,23.0,-100.00,NW,310,30.0,34.0,48,0.00,,,-99.99,,2013-01-29 19:33:00,
2013-01-29 11:42:00,41.0,23.0,-100.00,NW,310,30.0,34.0,48,0.00,,,-99.99,,2013-01-29 19:42:00,
2013-01-29 11:52:00,41.0,23.0,-100.00,NW,310,30.0,34.0,48,0.00,,,-99.99,,2013-01-29 19:52:00,
2013-01-29 12:01:00,41.0,23.0,-100.00,NNW,330,24.0,28.0,49,0.00,,,-99.99,,2013-01-29 20:01:00,
2013-01-29 12:23:00,41.0,23.0,-100.00,NNW,330,24.0,28.0,49,0.00,,,-99.99,,2013-01-29 20:23:00,
2013-01-29 12:33:00,41.0,23.0,-100.00,NNW,330,24.0,28.0,49,0.00,,,-99.99,,2013-01-29 20:33:00,
2013-01-29 12:42:00,41.0,23.0,-100.00,NNW,330,24.0,28.0,49,0.00,,,-99.99,,2013-01-29 20:42:00,
2013-01-29 12:53:00,41.0,23.0,-100.00,NNW,330,24.0,28.0,49,0.00,,,-99.99,,2013-01-29 20:53:00,
2013-01-29 13:01:00,42.0,24.0,-100.00,NNW,330,23.0,28.0,49,0.00,,,-99.99,,2013-01-29 21:01:00,
2013-01-29 13:22:00,42.0,24.0,-100.00,NNW,330,23.0,28.0,49,0.00,,,-99.99,,2013-01-29 21:22:00,
2013-01-29 13:34:00,42.0,24.0,-100.00,NNW,330,23.0,28.0,49,0.00,,,-99.99,,2013-01-29 21:34:00,
2013-01-29 13:42:00,42.0,24.0,-100.00,NNW,330,23.0,28.0,49,0.00,,,-99.99,,2013-01-29 21:42:00,
2013-01-29 13:52:00,42.0,24.0,-100.00,NNW,330,23.0,28.0,49,0.00,,,-99.99,,2013-01-29 21:52:00,
2013-01-29 14:01:00,43.0,25.0,-100.00,NNW,330,22.0,27.0,48,0.00,,,-99.99,,2013-01-29 22:01:00,
2013-01-29 14:22:00,43.0,25.0,-100.00,NNW,330,22.0,27.0,48,0.00,,,-99.99,,2013-01-29 22:22:00,
2013-01-29 14:33:00,43.0,25.0,-100.00,NNW,330,22.0,27.0,48,0.00,,,-99.99,,2013-01-29 22:33:00,
2013-01-29 14:42:00,43.0,25.0,-100.00,NNW,330,22.0,27.0,48,0.00,,,-99.99,,2013-01-29 22:42:00,
2013-01-29 14:53:00,43.0,25.0,-100.00,NNW,330,22.0,27.0,48,0.00,,,-99.99,,2013-01-29 22:53:00,
2013-01-29 15:01:00,46.0,26.0,-100.00,WNW,300,24.0,27.0,46,0.00,,,-99.99,,2013-01-29 23:01:00,
2013-01-29 15:23:00,46.0,26.0,-100.00,WNW,300,24.0,27.0,46,0.00,,,-99.99,,2013-01-29 23:23:00,
2013-01-29 15:33:00,46.0,26.0,-100.00,WNW,300,24.0,27.0,46,0.00,,,-99.99,,2013-01-29 23:33:00,
2013-01-29 15:42:00,46.0,26.0,-100.00,WNW,300,24.0,27.0,46,0.00,,,-99.99,,2013-01-29 23:42:00,
2013-01-29 15:53:00,46.0,26.0,-100.00,WNW,300,24.0,27.0,46,0.00,,,-99.99,,2013-01-29 23:53:00,
2013-01-29 16:01:00,44.0,26.0,-100.00,WNW,290,27.0,29.0,49,0.00,,,-99.99,,2013-01-30 00:01:00,
2013-01-29 16:22:00,44.0,26.0,-100.00,WNW,290,27.0,29.0,49,0.00,,,-99.99,,2013-01-30 00:22:00,
2013-01-29 16:32:00,44.0,26.0,-100.00,WNW,290,27.0,29.0,49,0.00,,,-99.99,,2013-01-30 00:32:00,
2013-01-29 16:43:00,44.0,26.0,-100.00,WNW,290,27.0,29.0,49,0.00,,,-99.99,,2013-01-30 00:43:00,
2013-01-29 16:52:00,44.0,26.0,-100.00,WNW,290,27.0,29.0,49,0.00,,,-99.99,,2013-01-30 00:52:00,
2013-01-29 17:01:00,44.0,22.0,-100.00,North,350,20.0,29.0,41,0.00,,,-99.99,,2013-01-30 01:01:00,
2013-01-29 17:22:00,44.0,22.0,-100.00,North,350,20.0,29.0,41,0.00,,,-99.99,,2013-01-30 01:22:00,
2013-01-29 17:32:00,44.0,22.0,-100.00,North,350,20.0,29.0,41,0.00,,,-99.99,,2013-01-30 01:32:00,
2013-01-29 17:42:00,44.0,22.0,-100.00,North,350,20.0,29.0,41,0.00,,,-99.99,,2013-01-30 01:42:00,
2013-01-29 17:52:00,44.0,22.0,-100.00,North,350,20.0,29.0,41,0.00,,,-99.99,,2013-01-30 01:52:00,
2013-01-29 18:22:00,50.0,23.0,-100.00,North,360,18.0,22.0,34,0.00,,,-99.99,,2013-01-30 02:22:00,
2013-01-29 18:33:00,50.0,23.0,-100.00,North,360,18.0,22.0,34,0.00,,,-99.99,,2013-01-30 02:33:00,
2013-01-29 19:01:00,47.0,23.0,-100.00,North,10,13.0,22.0,38,0.00,,,-99.99,,2013-01-30 03:01:00,
2013-01-29 19:22:00,47.0,23.0,-100.00,North,10,13.0,22.0,38,0.00,,,-99.99,,2013-01-30 03:22:00,
2013-01-29 19:32:00,47.0,23.0,-100.00,North,10,13.0,22.0,38,0.00,,,-99.99,,2013-01-30 03:32:00,
2013-01-29 20:32:00,44.0,24.0,-100.00,North,350,16.0,17.0,45,0.00,,,-99.99,,2013-01-30 04:32:00,
2013-01-29 20:42:00,44.0,24.0,-100.00,North,350,16.0,17.0,45,0.00,,,-99.99,,2013-01-30 04:42:00,
2013-01-29 20:52:00,44.0,24.0,-100.00,North,350,16.0,17.0,45,0.00,,,-99.99,,2013-01-30 04:52:00,
2013-01-29 21:01:00,45.0,24.0,-100.00,North,350,17.0,19.0,43,0.00,,,-99.99,,2013-01-30 05:01:00,
2013-01-29 21:22:00,45.0,24.0,-100.00,North,350,17.0,19.0,43,0.00,,,-99.99,,2013-01-30 05:22:00,
2013-01-29 21:32:00,45.0,24.0,-100.00,North,350,17.0,19.0,43,0.00,,,-99.99,,2013-01-30 05:32:00,
2013-01-29 21:43:00,45.0,24.0,-100.00,North,350,17.0,19.0,43,0.00,,,-99.99,,2013-01-30 05:43:00,
2013-01-29 21:52:00,45.0,24.0,-100.00,North,350,17.0,19.0,43,0.00,,,-99.99,,2013-01-30 05:52:00,
2013-01-29 22:01:00,43.0,25.0,-100.00,NE,40,12.0,13.0,49,0.00,,,-99.99,,2013-01-30 06:01:00,
2013-01-29 22:22:00,43.0,25.0,-100.00,NE,40,12.0,13.0,49,0.00,,,-99.99,,2013-01-30 06:22:00,
2013-01-29 22:32:00,43.0,25.0,-100.00,NE,40,12.0,13.0,49,0.00,,,-99.99,,2013-01-30 06:32:00,
2013-01-29 22:42:00,43.0,25.0,-100.00,NE,40,12.0,13.0,49,0.00,,,-99.99,,2013-01-30 06:42:00,
2013-01-29 22:52:00,43.0,25.0,-100.00,NE,40,12.0,13.0,49,0.00,,,-99.99,,2013-01-30 06:52:00,
2013-01-29 23:01:00,40.0,24.0,-100.00,NE,50,13.0,28.0,53,0.00,,,-99.99,,2013-01-30 07:01:00,
2013-01-29 23:22:00,40.0,24.0,-100.00,NE,50,13.0,28.0,53,0.00,,,-99.99,,2013-01-30 07:22:00,
2013-01-29 23:32:00,40.0,24.0,-100.00,NE,50,13.0,28.0,53,0.00,,,-99.99,,2013-01-30 07:32:00,
2013-01-29 23:42:00,40.0,24.0,-100.00,NE,50,13.0,28.0,53,0.00,,,-99.99,,2013-01-30 07:42:00,
2013-01-29 23:52:00,40.0,24.0,-100.00,NE,50,13.0,28.0,53,0.00,,,-99.99,,2013-01-30 07:52:00,